TimeEDT,TemperatureF,Dew PointF,Humidity,Sea Level PressureIn,VisibilityMPH,Wind Direction,Wind SpeedMPH,Gust SpeedMPH,PrecipitationIn,Events,Conditions,WindDirDegrees,DateUTC
12:15 AM,69.8,69.8,100,29.94,2.0,Calm,Calm,-,N/A,,Overcast,0,2013-08-29 04:15:00
12:35 AM,69.8,69.8,100,29.95,0.2,Calm,Calm,-,N/A,Fog,Fog,0,2013-08-29 04:35:00
12:55 AM,69.8,69.8,100,29.94,0.2,Calm,Calm,-,N/A,Fog,Fog,0,2013-08-29 04:55:00
1:15 AM,69.8,69.8,100,29.95,0.2,Calm,Calm,-,N/A,Fog,Fog,0,2013-08-29 05:15:00
1:35 AM,69.8,69.8,100,29.94,0.2,Calm,Calm,-,N/A,Fog,Fog,0,2013-08-29 05:35:00
1:55 AM,68.0,68.0,100,29.94,1.5,Calm,Calm,-,N/A,,Overcast,0,2013-08-29 05:55:00
2:15 AM,68.0,68.0,100,29.94,0.5,Calm,Calm,-,N/A,Fog,Fog,0,2013-08-29 06:15:00
2:35 AM,68.0,68.0,100,29.95,1.8,Calm,Calm,-,N/A,,Overcast,0,2013-08-29 06:35:00
2:55 AM,68.0,68.0,100,29.95,2.5,Calm,Calm,-,N/A,,Overcast,0,2013-08-29 06:55:00
3:15 AM,68.0,68.0,100,29.95,2.0,Calm,Calm,-,N/A,,Overcast,0,2013-08-29 07:15:00
3:35 AM,68.0,68.0,100,29.96,3.0,East,3.5,-,N/A,,Overcast,90,2013-08-29 07:35:00
3:55 AM,68.0,68.0,100,29.96,2.5,East,3.5,-,N/A,,Overcast,100,2013-08-29 07:55:00
4:15 AM,68.0,68.0,100,29.96,3.0,ESE,3.5,-,N/A,,Overcast,110,2013-08-29 08:15:00
4:35 AM,68.0,68.0,100,29.96,2.5,SE,4.6,-,N/A,,Overcast,130,2013-08-29 08:35:00
4:55 AM,68.0,68.0,100,29.96,1.5,SSE,3.5,-,N/A,,Overcast,150,2013-08-29 08:55:00
5:15 AM,66.2,66.2,100,29.96,3.0,SE,3.5,-,N/A,,Overcast,140,2013-08-29 09:15:00
5:35 AM,68.0,68.0,100,29.97,3.0,East,3.5,-,N/A,,Overcast,80,2013-08-29 09:35:00
5:55 AM,68.0,68.0,100,29.97,3.0,East,4.6,-,N/A,,Overcast,80,2013-08-29 09:55:00
6:15 AM,66.2,66.2,100,29.98,3.0,ENE,3.5,-,N/A,,Overcast,70,2013-08-29 10:15:00
6:35 AM,66.2,66.2,100,30.00,3.0,ENE,4.6,-,N/A,,Overcast,70,2013-08-29 10:35:00
6:55 AM,66.2,66.2,100,30.01,3.0,NE,8.1,-,N/A,,Overcast,50,2013-08-29 10:55:00
7:15 AM,66.2,66.2,100,30.01,4.0,NE,4.6,-,N/A,,Overcast,50,2013-08-29 11:15:00
7:35 AM,66.2,66.2,100,30.02,5.0,NE,4.6,-,N/A,,Overcast,40,2013-08-29 11:35:00
7:55 AM,66.2,64.4,94,30.02,8.0,NE,5.8,-,N/A,,Overcast,40,2013-08-29 11:55:00
8:15 AM,66.2,64.4,94,30.03,9.0,NE,6.9,-,N/A,Rain,Light Rain,50,2013-08-29 12:15:00
8:35 AM,66.2,64.4,94,30.03,10.0,NE,6.9,-,N/A,,Overcast,50,2013-08-29 12:35:00
8:55 AM,66.2,64.4,94,30.04,8.0,ENE,4.6,-,N/A,,Overcast,70,2013-08-29 12:55:00
9:15 AM,66.2,64.4,94,30.04,10.0,ENE,6.9,-,N/A,,Overcast,60,2013-08-29 13:15:00
9:35 AM,66.2,64.4,94,30.04,10.0,NE,4.6,-,N/A,,Overcast,50,2013-08-29 13:35:00
9:55 AM,66.2,64.4,94,30.05,10.0,ENE,5.8,-,N/A,,Overcast,70,2013-08-29 13:55:00
10:15 AM,66.2,64.4,94,30.05,7.0,ENE,5.8,-,N/A,,Overcast,70,2013-08-29 14:15:00
10:35 AM,66.2,66.2,100,30.05,4.0,NE,4.6,-,N/A,,Overcast,50,2013-08-29 14:35:00
10:55 AM,68.0,64.4,88,30.05,10.0,ENE,5.8,-,N/A,,Overcast,70,2013-08-29 14:55:00
11:15 AM,69.8,64.4,83,30.05,10.0,NE,6.9,-,N/A,,Overcast,50,2013-08-29 15:15:00
11:35 AM,69.8,64.4,83,30.05,10.0,NE,5.8,-,N/A,,Overcast,50,2013-08-29 15:35:00
11:55 AM,71.6,64.4,78,30.05,10.0,NNE,6.9,-,N/A,Rain,Light Rain,30,2013-08-29 15:55:00
12:15 PM,71.6,64.4,78,30.04,10.0,NE,4.6,-,N/A,,Overcast,40,2013-08-29 16:15:00
12:35 PM,71.6,64.4,78,30.04,10.0,NE,5.8,-,N/A,,Overcast,40,2013-08-29 16:35:00
12:55 PM,71.6,64.4,78,30.04,10.0,NE,4.6,-,N/A,,Overcast,40,2013-08-29 16:55:00
1:15 PM,71.6,64.4,78,30.04,10.0,NE,6.9,-,N/A,,Overcast,40,2013-08-29 17:15:00
1:35 PM,71.6,64.4,78,30.04,10.0,ENE,5.8,-,N/A,,Overcast,60,2013-08-29 17:35:00
1:55 PM,71.6,64.4,78,30.04,10.0,North,6.9,-,N/A,,Overcast,10,2013-08-29 17:55:00
2:15 PM,73.4,64.4,73,30.03,10.0,NE,6.9,-,N/A,,Overcast,50,2013-08-29 18:15:00
2:35 PM,73.4,64.4,73,30.03,10.0,NE,6.9,-,N/A,,Overcast,40,2013-08-29 18:35:00
2:55 PM,71.6,64.4,78,30.03,10.0,NE,6.9,-,N/A,,Overcast,50,2013-08-29 18:55:00
3:15 PM,71.6,64.4,78,30.03,10.0,NE,4.6,-,N/A,,Overcast,50,2013-08-29 19:15:00
3:35 PM,73.4,64.4,73,30.03,10.0,NE,5.8,-,N/A,,Mostly Cloudy,50,2013-08-29 19:35:00
3:55 PM,73.4,64.4,73,30.03,10.0,ENE,5.8,-,N/A,,Mostly Cloudy,70,2013-08-29 19:55:00
4:15 PM,73.4,64.4,73,30.03,10.0,ENE,6.9,-,N/A,,Overcast,60,2013-08-29 20:15:00
4:35 PM,73.4,64.4,73,30.03,10.0,ENE,6.9,-,N/A,,Mostly Cloudy,60,2013-08-29 20:35:00
4:55 PM,71.6,64.4,78,30.03,10.0,ENE,8.1,-,N/A,,Mostly Cloudy,60,2013-08-29 20:55:00
5:15 PM,71.6,64.4,78,30.04,10.0,ENE,8.1,-,N/A,,Mostly Cloudy,60,2013-08-29 21:15:00
5:35 PM,71.6,64.4,78,30.04,10.0,ENE,6.9,-,N/A,,Overcast,60,2013-08-29 21:35:00
5:55 PM,69.8,64.4,83,30.04,10.0,NE,8.1,-,N/A,,Overcast,50,2013-08-29 21:55:00
6:15 PM,69.8,62.6,78,30.04,10.0,ENE,6.9,-,N/A,,Overcast,70,2013-08-29 22:15:00
6:35 PM,68.0,62.6,83,30.04,10.0,ENE,5.8,-,N/A,,Scattered Clouds,60,2013-08-29 22:35:00
6:55 PM,68.0,62.6,83,30.05,10.0,ENE,4.6,-,N/A,,Clear,70,2013-08-29 22:55:00
7:15 PM,66.2,62.6,88,30.05,10.0,ENE,6.9,-,N/A,,Scattered Clouds,70,2013-08-29 23:15:00
7:35 PM,66.2,62.6,88,30.06,10.0,ENE,3.5,-,N/A,,Mostly Cloudy,60,2013-08-29 23:35:00
7:55 PM,66.2,62.6,88,30.05,10.0,ENE,5.8,-,N/A,,Overcast,60,2013-08-29 23:55:00
8:15 PM,66.2,62.6,88,30.06,10.0,ENE,5.8,-,N/A,,Overcast,70,2013-08-30 00:15:00
8:35 PM,66.2,62.6,88,30.06,10.0,ENE,8.1,-,N/A,,Overcast,60,2013-08-30 00:35:00
8:55 PM,64.4,62.6,94,30.06,10.0,ENE,3.5,-,N/A,,Overcast,70,2013-08-30 00:55:00
9:15 PM,64.4,62.6,94,30.06,10.0,ENE,4.6,-,N/A,,Overcast,60,2013-08-30 01:15:00
9:35 PM,64.4,62.6,94,30.06,10.0,ENE,6.9,-,N/A,,Overcast,70,2013-08-30 01:35:00
9:55 PM,64.4,62.6,94,30.07,10.0,NE,4.6,-,N/A,,Overcast,50,2013-08-30 01:55:00
10:15 PM,64.4,62.6,94,30.06,10.0,NE,5.8,-,N/A,,Overcast,50,2013-08-30 02:15:00
10:35 PM,64.4,62.6,94,30.07,10.0,ENE,5.8,-,N/A,,Overcast,60,2013-08-30 02:35:00
10:55 PM,64.4,62.6,94,30.06,10.0,ENE,4.6,-,N/A,,Overcast,60,2013-08-30 02:55:00
11:15 PM,64.4,62.6,94,30.06,10.0,ENE,3.5,-,N/A,,Overcast,70,2013-08-30 03:15:00
11:35 PM,64.4,62.6,94,30.05,10.0,East,3.5,-,N/A,,Scattered Clouds,80,2013-08-30 03:35:00
11:55 PM,62.6,62.6,100,30.04,10.0,Calm,Calm,-,N/A,,Clear,0,2013-08-30 03:55:00